www.pogodaiklimat.ru

Погода и климат >> Архив погоды >> Россия >> Хабаровский край >> Гвасюги


ПОГОДА в Гвасюгах

  • Прогноз погоды в Гвасюгах
  • Монитор погоды в Гвасюгах

АРХИВ ПОГОДЫ в Гвасюгах

Время (UTC), дата Ветер
(напр.,м/с)
 
Видим.   Явления Облачность Т
(С)
Тd
(С)
f
(%)
Тe
(С)
Тes
(С)
Комфортность P
(гПа)
Po
(гПа)
Тmin
(С)
Tmax
(С)
R
(мм)
R24
(мм)
S
(см)
12 13.05 штиль 0 20 км 4/0
[Ac trans]
+11.4 +6.6 72 +11 +11 1009.4 988.0
15 13.05 С 1 20 км 3/3 600 м
[Cb cap Ci fib]
+10.7 +6.0 73 +11 +11 1011.0 989.4
18 13.05 штиль 0 20 км 1/0
[Ci fib]
+6.8 +4.3 84 +6 +6 1012.5 990.6
21 13.05 С 1 20 км 10/0
[Cs]
+9.4 +5.0 74 +9 +10 1013.9 992.2 +5.0
00 14.05 ЮВ 1 50 км 10/0
[Cs]
+18.8 +5.6 42 +20 +31 1012.6 991.6
03 14.05 Ю 1 20 км 10/3 600 м
[Cu hum Cs]
+23.8 +4.1 28 +23 +35 комфорт 1010.5 989.9
06 14.05 Ю 2 20 км 10/1 600 м
[Cu hum Cs]
+26.3 +4.1 24 +25 +33 комфорт 1007.8 987.4
09 14.05 С 1 20 км гроза без осадков {ливн. осадки} 10/6 600 м
[Cb cap Ac cast Ci sp]
+18.7 +10.5 59 +20 +21 1009.3 988.4 +26.5 1
12 14.05 С 2 20 км {гроза, ливн. осадки} 10/1 600 м
[Sc Cs]
+12.5 +10.8 89 +12 +12 1010.6 989.2
15 14.05 СВ 2 20 км 9/9 600 м
[Cb cap]
+12.1 +10.0 87 +11 +11 1010.8 989.4
18 14.05 СВ 2 20 км в посл. час ливневой дождь 3/3 600 м
[Cb cap]
+10.4 +9.2 92 +9 +9 1011.2 989.6
21 14.05 штиль 0 4000 м туман на расстоянии {ливн. осадки} 3/0
[Cc]
+8.9 +8.1 95 +8 +10 1011.9 990.2 +6.3 0.9
00 15.05 Ю 3 20 км {ливн. осадки} 6/0
[Ac trans Ci sp]
+19.3 +7.0 45 +20 +28 1010.3 989.4
03 15.05 З 3 20 км 4/4 600 м
[Cu med, cong]
+23.2 +2.9 26 +23 +31 комфорт 1007.7 987.1
06 15.05 ЮЗ 4 20 км 9/8 600 м
[Cu Sc Ci fib]
+23.6 +1.0 23 +23 +24 комфорт 1006.0 985.5
09 15.05 ЮЗ 3
{11}
20 км 3/1 600 м
[Sc Ci sp]
+22.2 +1.2 25 +22 +23 комфорт 1006.2 985.6 +24.9
12 15.05 С 1 20 км 3/0
[Ci sp]
+10.4 +5.8 73 +10 +10 1008.4 986.9
15 15.05 С 1 20 км 9/5 600 м
[Cb cap Ci ing]
+7.3 +4.4 82 +6 +6 1008.5 986.7
18 15.05 СВ 1 20 км 9/9 600 м
[Cb cap]
+7.8 +5.5 85 +7 +7 1008.7 987.0
21 15.05 штиль 0 20 км 10/0
[Ci sp]
+9.3 +6.4 82 +9 +10 1008.6 987.0 +5.3
00 16.05 штиль 0 20 км 10/0
[Ci]
+20.4 +6.2 40 +21 +33 комфорт 1005.8 985.1
03 16.05 Ю 3
{10}
20 км 10/0
[Ci sp]
+27.3 -3.5 13 +25 +36 комфорт 1002.8 982.6
06 16.05 Ю 5-11
{13}
20 км 10/3 600 м
[Sc Ac lent Cc]
+28.5 -4.6 11 +25 +27 комфорт 1000.9 980.8
09 16.05 ЮЗ 3
{13}
20 км 10/10 600 м
[Sc]
+24.4 +1.0 21 +23 +23 комфорт 1002.4 982.0 +28.6
12 16.05 В 2
{13}
10 км слаб. ливневой дождь 10/10 600 м
[Cb cap]
+12.1 +10.8 92 +11 +11 1008.9 987.5
15 16.05 штиль 0 50 км гроза без осадков {ливн. осадки} 6/3 600 м
[Cb cap Ci sp]
+9.6 +8.7 94 +9 +9 1008.8 987.3
18 16.05 штиль 0 50 км {гроза, ливн. осадки} 4/3 600 м
[Sc]
+6.1 +5.3 95 +5 +5 1008.9 987.1
21 16.05 СВ 1 10 км гроза, ливневой дождь 10/10 600 м
[Cb cap]
+7.8 +7.0 95 +7 +7 1009.5 987.8 +5.9 5
00 17.05 штиль 0 20 км в посл. час ливневой дождь {гроза} 10/10 600 м
[Sc]
+11.5 +10.8 95 +11 +11 1008.6 987.2
03 17.05 Ю 3
{10}
50 км 10/8 600 м
[Cb cap Ci sp]
+19.1 +9.9 55 +20 +22 1006.9 986.1
06 17.05 ЮЗ 2 50 км 10/10 600 м
[Cb cap]
+20.7 +10.5 52 +23 +23 комфорт 1006.7 986.0
09 17.05 ЮЗ 2 20 км 10/5 600 м
[Cb cap Ci sp]
+20.4 +9.0 48 +22 +23 комфорт 1008.3 987.6 +20.9 4
12 17.05 СВ 1 20 км 10/8 600 м
[Sc Ci sp]
+13.2 +10.5 84 +13 +13 1009.9 988.6
15 17.05 штиль 0 20 км 10/4 600 м
[Sc Ci sp]
+10.4 +9.1 92 +10 +10 1010.0 988.5
18 17.05 СВ 1 20 км 10/10 600 м
[Sc]
+9.1 +8.1 93 +8 +8 1010.5 988.8
21 17.05 С 1 10 км в посл. час ливневой дождь 10/4 600 м
[Cb cap Ci sp]
+10.1 +9.1 94 +10 +10 1010.1 988.5 +8.5 0.5
00 18.05 Ю 1 10 км гроза, ливневой дождь 10/8 600 м
[Cb cap Ci sp]
+15.2 +13.6 90 +16 +18 1009.8 988.7
03 18.05 С 1 20 км {гроза, ливн. осадки} 10/4 600 м
[Cb cap Ac lent Ci sp]
+20.3 +15.4 73 +24 +30 комфорт 1008.7 988.0
06 18.05 ЮЗ 3 20 км {гроза, ливн. осадки} 10/6 600 м
[Cb cap Ci ing]
+25.0 +10.6 40 +26 +29 жарко 1005.9 985.5
09 18.05 ЮЗ 3
{11}
20 км 10/5 600 м
[Cb cap Ci sp]
+24.1 +11.1 44 +25 +26 комфорт 1005.2 984.8 +25.8 1
12 18.05 С 2 20 км 10/10 600 м
[Cb cap]
+15.1 +9.7 70 +15 +15 1007.5 986.4
15 18.05 С 1 20 км в посл. час ливневой дождь 8/8 600 м
[Cb cap]
+11.1 +9.7 91 +11 +11 1010.6 989.1
18 18.05 Ю 1 10 км гроза, ливневой дождь 10/8 600 м
[Cb cap Ci sp]
+15.2 +13.6 90 +16 +16 1009.8 988.7
21 18.05 Ю 1 20 км {ливн. осадки} 10/10 600 м
[Frnb Ns]
+11.7 +10.6 93 +11 +11 1013.1 991.6 +10.7 3
00 19.05 Ю 2 50 км {ливн. осадки} 10/10 600 м
[Frnb]
+14.8 +10.7 76 +15 +15 1012.9 991.6
03 19.05 ЮЗ 1 50 км 10/10 600 м
[Sc]
+17.4 +6.8 50 +18 +18 1012.6 991.6
06 19.05 Ю 2 50 км 10/10 600 м
[Sc]
+18.0 +9.7 58 +19 +19 1011.4 990.4
09 19.05 В 1 50 км 10/4 600 м
[Sc Ac As]
+16.5 +10.7 69 +17 +18 1009.2 988.2 +18.1
12 19.05 С 1 50 км 10/4 600 м
[Sc As op]
+12.6 +10.5 87 +13 +13 1007.8 986.4
15 19.05 СВ 2 20 км в посл. час дождь 10/8 600 м
[Sc As op]
+13.5 +11.0 85 +13 +13 1004.5 983.3
18 19.05 СЗ 1 20 км {ливн. осадки, дождь} 10/10 600 м
[Cb cap]
+11.5 +10.5 94 +11 +11 1002.3 981.1
21 19.05 СВ 1 10 км слаб. дождь 10/0
[As op]
+12.1 +11.2 94 +12 +12 1000.0 978.8 +10.9 2
00 20.05 В 2 10 км слаб. дождь 10/10 600 м
[Frnb Ns]
+12.8 +11.7 93 +12 +12 998.9 977.8
03 20.05 В 2 10 км слаб. дождь 10/10 600 м
[Frnb Ns]
+14.3 +13.0 92 +14 +14 996.0 975.1
06 20.05 Ю 2 20 км в посл. час дождь 10/10 600 м
[Frnb Ns]
+15.7 +13.9 89 +16 +16 994.3 973.5
09 20.05 СВ 1 20 км в посл. час дождь 10/6 600 м
[Frnb As op]
+14.7 +13.4 92 +15 +15 993.3 972.5 +16.4 13

 

Местоположение метеостанции Гвасюги (Хабаровский край, Россия): широта 47.67 долгота 136.10 высота над уровнем моря 180 м.

В архиве по умолчанию представлена погода в Гвасюгах за последнюю неделю. Архивные данные за месяц целиком и за предыдущие месяцы, начиная с января 2011 года, Вы можете получить, выбрав интересующий диапазон дат из раскрывающегося списка и нажав кнопку "Ввод!".


*Определитесь, кто Вы:
робот инопланетянин человек

Внимание! Время в таблицах - всемирное. Для получения местного времени необходимо прибавить поправку, которая равна 10 ч.

Смотрите также архив погоды в соседних городах и на ближайших метеорологических станциях:

Погода в Бичевой (Хабаровский край, Россия) (39 км)
Погода в Оборе (Хабаровский край, Россия) (58 км)
Погода в Георгиевке (Хабаровский край, Россия) (74 км)
Погода в Хоре (Хабаровский край, Россия) (89 км)
Погода в Князе-Волконском (Хабаровский край, Россия) (102 км)
Погода в Сукпае (Хабаровский край, Россия) (105 км)
Погода в Хабаровске 21 км (Хабаровский край, Россия) (105 км)
Погода в Вяземском (Хабаровский край, Россия) (106 км)
Погода в Хабаровске Аэр. Большой (Хабаровский край, Россия) (113 км)
Погода в Бычихе (Хабаровский край, Россия) (118 км)

Пояснения к столбцам:

Ветер - указаны скорость ветра в м/с - средняя за 10 мин, порывы в срок и между сроками (в фигурных скобках) и направление, откуда дует ветер: С - северный, СВ - северо-восточный, В - восточный, ЮВ - юго-восточный, Ю - южный, ЮЗ - юго-западный, З - западный, СЗ - северо-западный.
Видимость - горизонтальная дальность видимости в метрах или километрах. При видимости от 1 до 10 км при отсутствии осадков обычно наблюдается дымка, при ухудшении видимости до 1 км и менее - туман. В сухую погоду видимость может ухудшаться дымом, пылью или мглою.
Явления - указаны атмосферные явления, наблюдавшиеся в срок или в последний час перед сроком; фигурными скобками обозначены явления, наблюдавшиеся между сроками (за 1-3 часа до срока); квадратными скобками обозначены град или гололедные отложения с указанием их диаметра в мм.
Облачность - указаны через наклонную черту общая и нижняя облачность в баллах и высота нижней границы облаков в метрах; квадратными скобками обозначены формы облаков: Ci - перистые, Cs - перисто-слоистые, Cc - перисто-кучевые, Ac - высококучевые, As - высокослоистые, Sc - слоисто-кучевые, Ns - слоисто-дождевые, Cu - кучевые, Cb - кучево-дождевые. Подробнее классификацию облаков см. в Атласе облаков (PDF).
T - Температура воздуха - температура, измеренная на высоте 2 м над землей.
Td - Температура точки росы - температура, при понижении до которой содержащийся в воздухе водяной пар достигнет насыщения.
f - Относительная влажность воздуха - влажноcть воздуха, измеренная на высоте 2 м над землей.
Te - Эффективная температура - температура, которую ощущает одетый по сезону человек в тени. Характеристика душности погоды. При расчете учитывается влияние влажности воздуха и скорости ветра на теплоощущения человека.
Tes - Эффективная температура на солнце - температура, которую ощущает человек, с поправкой на солнечный нагрев. Характеристика знойности погоды. Зависит от высоты солнца над горизонтом, облачности и скорости ветра. Ночью, в пасмурную погоду, а также при ветре 12 м/с и более поправка равна нулю.
P - Атмосферное давление - приведенное к уровню моря атмосферное давление.
Po - Атмосферное давление - измеренное на уровне метеостанции атмосферное давление.
Tmin - Минимальная температура - минимум температуры воздуха на высоте 2 м над землей.
Tmax - Максимальная температура - максимум температуры воздуха на высоте 2 м над землей.
R - Количество осадков - Количество выпавших осадков за период времени, мм. При наведении курсора мыши на число - период времени, за который выпало указанное количество осадков.
R24 - Количество осадков - Количество выпавших осадков за 24 часа, мм.
S - Снежный покров - Высота снежного покрова, см. При наведении курсора мыши на число - состояние снежного покрова и степень покрытия местности в баллах.